TimeCET,TemperatureF,Dew PointF,Humidity,Sea Level PressureIn,VisibilityMPH,Wind Direction,Wind SpeedMPH,Gust SpeedMPH,PrecipitationIn,Events,Conditions,WindDirDegrees,DateUTC
12:00 AM,39.2,39.2,100,30.21,6.2,Calm,Calm,-,N/A,,Unknown,0,2012-12-29 23:00:00
12:30 AM,39.2,39.2,100,30.21,6.2,Calm,Calm,-,N/A,,Unknown,0,2012-12-29 23:30:00
1:00 AM,41.0,39.2,93,30.21,6.2,NNW,2.3,-,N/A,,Unknown,330,2012-12-30 00:00:00
1:30 AM,41.0,39.2,93,30.21,6.2,ESE,3.5,-,N/A,,Unknown,110,2012-12-30 00:30:00
2:00 AM,41.0,39.2,93,30.21,6.2,Variable,2.3,-,N/A,,Unknown,0,2012-12-30 01:00:00
2:30 AM,39.2,37.4,93,30.21,4.3,Calm,Calm,-,N/A,,Unknown,0,2012-12-30 01:30:00
3:00 AM,39.2,37.4,93,30.21,6.2,WSW,2.3,-,N/A,,Unknown,250,2012-12-30 02:00:00
3:30 AM,37.4,37.4,100,30.18,1.8,Calm,Calm,-,N/A,,Mist,0,2012-12-30 02:30:00
4:00 AM,37.4,35.6,93,30.18,4.3,Variable,2.3,-,N/A,,Unknown,0,2012-12-30 03:00:00
4:30 AM,41.0,41.0,100,30.21,6.2,SW,3.5,-,N/A,,Unknown,230,2012-12-30 03:30:00
5:00 AM,42.8,42.8,100,30.21,6.2,SSW,4.6,-,N/A,,Unknown,210,2012-12-30 04:00:00
5:30 AM,42.8,41.0,93,30.21,6.2,SW,5.8,-,N/A,,Unknown,230,2012-12-30 04:30:00
6:00 AM,42.8,41.0,93,30.21,6.2,WSW,8.1,-,N/A,,Unknown,240,2012-12-30 05:00:00
6:30 AM,41.0,39.2,93,30.21,6.2,West,4.6,-,N/A,,Unknown,260,2012-12-30 05:30:00
7:00 AM,42.8,39.2,87,30.21,6.2,WSW,6.9,-,N/A,,Unknown,250,2012-12-30 06:00:00
7:30 AM,42.8,39.2,87,30.21,6.2,SW,5.8,-,N/A,,Unknown,230,2012-12-30 06:30:00
8:00 AM,42.8,37.4,81,30.21,6.2,SW,6.9,-,N/A,,Unknown,230,2012-12-30 07:00:00
8:30 AM,42.8,37.4,81,30.24,6.2,WSW,6.9,-,N/A,,Unknown,240,2012-12-30 07:30:00
9:00 AM,44.6,37.4,76,30.24,6.2,SW,6.9,-,N/A,,Unknown,220,2012-12-30 08:00:00
9:30 AM,46.4,37.4,71,30.24,6.2,West,16.1,-,N/A,,Unknown,260,2012-12-30 08:30:00
10:00 AM,48.2,37.4,66,30.24,6.2,West,15.0,-,N/A,,Unknown,260,2012-12-30 09:00:00
10:30 AM,50.0,39.2,66,30.24,6.2,SW,9.2,-,N/A,,Unknown,230,2012-12-30 09:30:00
11:00 AM,51.8,39.2,62,30.24,6.2,West,16.1,-,N/A,,Unknown,280,2012-12-30 10:00:00
11:30 AM,53.6,39.2,58,30.21,6.2,WNW,19.6,-,N/A,,Unknown,290,2012-12-30 10:30:00
12:00 PM,55.4,37.4,51,30.21,6.2,WNW,20.7,32.2,N/A,,Unknown,290,2012-12-30 11:00:00
12:30 PM,55.4,37.4,51,30.21,6.2,WNW,21.9,34.5,N/A,,Unknown,290,2012-12-30 11:30:00
1:00 PM,57.2,37.4,48,30.18,6.2,WNW,17.3,-,N/A,,Unknown,300,2012-12-30 12:00:00
1:30 PM,59.0,37.4,45,30.18,6.2,NW,13.8,-,N/A,,Unknown,310,2012-12-30 12:30:00
2:00 PM,59.0,35.6,42,30.18,6.2,WNW,19.6,-,N/A,,Unknown,290,2012-12-30 13:00:00
2:30 PM,59.0,35.6,42,30.15,6.2,West,19.6,-,N/A,,Unknown,280,2012-12-30 13:30:00
3:00 PM,59.0,33.8,39,30.15,6.2,West,20.7,33.4,N/A,,Unknown,280,2012-12-30 14:00:00
3:30 PM,59.0,33.8,39,30.15,6.2,West,19.6,31.1,N/A,,Unknown,280,2012-12-30 14:30:00
4:00 PM,57.2,33.8,41,30.18,6.2,West,17.3,28.8,N/A,,Unknown,280,2012-12-30 15:00:00
4:30 PM,55.4,35.6,47,30.18,6.2,WNW,16.1,-,N/A,,Unknown,290,2012-12-30 15:30:00
5:00 PM,53.6,35.6,51,30.18,6.2,WNW,17.3,-,N/A,,Unknown,290,2012-12-30 16:00:00
5:30 PM,53.6,35.6,51,30.18,6.2,WNW,13.8,-,N/A,,Unknown,300,2012-12-30 16:30:00
6:00 PM,51.8,35.6,54,30.18,6.2,NW,9.2,-,N/A,,Unknown,310,2012-12-30 17:00:00
6:30 PM,50.0,35.6,58,30.21,6.2,ESE,3.5,-,N/A,,Unknown,110,2012-12-30 17:30:00
7:00 PM,50.0,33.8,54,30.21,6.2,Variable,2.3,-,N/A,,Unknown,0,2012-12-30 18:00:00
7:30 PM,51.8,33.8,50,30.21,6.2,West,6.9,-,N/A,,Unknown,260,2012-12-30 18:30:00
8:00 PM,50.0,33.8,54,30.24,6.2,WSW,5.8,-,N/A,,Unknown,240,2012-12-30 19:00:00
8:30 PM,46.4,32.0,57,30.24,6.2,Variable,2.3,-,N/A,,Unknown,0,2012-12-30 19:30:00
9:00 PM,44.6,33.8,66,30.24,6.2,Calm,Calm,-,N/A,,Unknown,0,2012-12-30 20:00:00
9:30 PM,42.8,32.0,66,30.24,6.2,Variable,2.3,-,N/A,,Unknown,0,2012-12-30 20:30:00
10:00 PM,39.2,32.0,75,30.24,6.2,Calm,Calm,-,N/A,,Unknown,0,2012-12-30 21:00:00
10:30 PM,39.2,32.0,75,30.27,6.2,Variable,2.3,-,N/A,,Unknown,0,2012-12-30 21:30:00
11:00 PM,37.4,32.0,81,30.27,6.2,Calm,Calm,-,N/A,,Unknown,0,2012-12-30 22:00:00
11:30 PM,37.4,32.0,81,30.27,6.2,Calm,Calm,-,N/A,,Unknown,0,2012-12-30 22:30:00